RYR2976 EICK-EBCI

Flight info

Callsign RYR2976
Flight time 1h 23m
Altitude 37000
Route VAPAL1N VAPAL DCT BANBA DCT DIQSE DCT ICOSA DCT RUHUN DCT ZESPE DCT YORQI DCT UNZIB DCT NUCHU L607 BIG Q70 VABIK/N0351F230 Q70 KOK
Aircraft B738/M-SDE2E3FGHIRWXY/LB1

Departure

Time 2026-04-29 10:40
Airport Cork International Airport (EICK)

Arrival

Time 2026-04-29 12:04
Airport Brussels South Charleroi Airport (EBCI)
Time Latitude Longitude Altitude Speed Heading
2026-04-29 10:22 51.84758 -8.49029 502 ft 0 kts 70°
2026-04-29 10:31 51.84757 -8.49031 502 ft 1 kts 70°
2026-04-29 10:31 51.84751 -8.49057 502 ft 3 kts 70°
2026-04-29 10:31 51.84744 -8.49088 502 ft 3 kts 70°
2026-04-29 10:31 51.84738 -8.49118 502 ft 2 kts 70°
2026-04-29 10:32 51.84732 -8.49144 502 ft 3 kts 88°
2026-04-29 10:32 51.84735 -8.49172 502 ft 3 kts 130°
2026-04-29 10:32 51.84750 -8.49191 502 ft 3 kts 159°
2026-04-29 10:32 51.84767 -8.49200 502 ft 0 kts 168°
2026-04-29 10:34 51.84767 -8.49199 502 ft 0 kts 168°
2026-04-29 10:34 51.84760 -8.49197 502 ft 2 kts 165°
2026-04-29 10:34 51.84723 -8.49177 502 ft 7 kts 161°
2026-04-29 10:35 51.84674 -8.49147 501 ft 8 kts 160°
2026-04-29 10:35 51.84609 -8.49109 491 ft 13 kts 160°
2026-04-29 10:35 51.84518 -8.49055 485 ft 13 kts 160°
2026-04-29 10:35 51.84423 -8.48999 487 ft 16 kts 159°
2026-04-29 10:36 51.84346 -8.49013 484 ft 12 kts 244°
2026-04-29 10:36 51.84318 -8.49130 483 ft 12 kts 240°
2026-04-29 10:36 51.84254 -8.49179 481 ft 13 kts 159°
2026-04-29 10:36 51.84165 -8.49125 472 ft 16 kts 161°
2026-04-29 10:37 51.84026 -8.49046 471 ft 24 kts 159°
2026-04-29 10:37 51.83869 -8.48954 467 ft 24 kts 160°
2026-04-29 10:37 51.83703 -8.48857 467 ft 25 kts 160°
2026-04-29 10:37 51.83543 -8.48761 469 ft 24 kts 160°
2026-04-29 10:38 51.83392 -8.48675 467 ft 23 kts 160°
2026-04-29 10:38 51.83299 -8.48575 470 ft 15 kts 112°
2026-04-29 10:38 51.83257 -8.48516 470 ft 5 kts 201°
2026-04-29 10:38 51.83244 -8.48577 471 ft 7 kts 285°
2026-04-29 10:39 51.83285 -8.48612 470 ft 7 kts 344°
2026-04-29 10:39 51.83338 -8.48640 467 ft 9 kts 340°
2026-04-29 10:39 51.83514 -8.48746 469 ft 53 kts 340°
2026-04-29 10:39 51.84029 -8.49053 473 ft 101 kts 340°
2026-04-29 10:40 51.84799 -8.49509 504 ft 132 kts 347°
2026-04-29 10:40 51.85662 -8.50042 787 ft 132 kts 350°
2026-04-29 10:40 51.86566 -8.50415 1085 ft 134 kts 354°
2026-04-29 10:40 51.87540 -8.50726 1768 ft 152 kts 359°
2026-04-29 10:41 51.88556 -8.50989 2365 ft 156 kts
2026-04-29 10:41 51.89708 -8.50646 2783 ft 173 kts 30°
2026-04-29 10:41 51.90760 -8.49604 3408 ft 184 kts 46°
2026-04-29 10:41 51.91512 -8.47955 4082 ft 182 kts 72°
2026-04-29 10:42 51.91686 -8.45944 4709 ft 188 kts 92°
2026-04-29 10:42 51.91562 -8.43700 5005 ft 209 kts 96°
2026-04-29 10:42 51.91391 -8.41306 5480 ft 221 kts 96°
2026-04-29 10:42 51.91209 -8.38715 5897 ft 238 kts 96°
2026-04-29 10:43 51.91030 -8.36018 6707 ft 242 kts 97°
2026-04-29 10:43 51.90856 -8.33290 7543 ft 246 kts 96°
2026-04-29 10:43 51.90686 -8.30514 8338 ft 250 kts 96°
2026-04-29 10:43 51.90519 -8.27693 9188 ft 253 kts 96°
2026-04-29 10:44 51.90352 -8.24832 10040 ft 256 kts 95°
2026-04-29 10:44 51.90185 -8.21927 10667 ft 267 kts 95°
2026-04-29 10:44 51.90007 -8.18790 10863 ft 291 kts 95°
2026-04-29 10:44 51.89817 -8.15454 11407 ft 302 kts 95°
2026-04-29 10:45 51.89624 -8.12053 12149 ft 306 kts 95°
2026-04-29 10:45 51.89429 -8.08610 12978 ft 308 kts 95°
2026-04-29 10:45 51.89231 -8.05138 13803 ft 312 kts 95°
2026-04-29 10:45 51.89029 -8.01616 14579 ft 315 kts 95°
2026-04-29 10:46 51.88895 -7.99278 15130 ft 316 kts 95°
2026-04-29 10:46 51.88690 -7.95731 15982 ft 317 kts 95°
2026-04-29 10:46 51.88484 -7.92167 16819 ft 319 kts 95°
2026-04-29 10:46 51.88276 -7.88589 17646 ft 321 kts 95°
2026-04-29 10:47 51.88063 -7.84975 18460 ft 324 kts 95°
2026-04-29 10:47 51.87892 -7.81335 19160 ft 326 kts 90°
2026-04-29 10:47 51.87982 -7.77678 19927 ft 325 kts 86°
2026-04-29 10:47 51.88186 -7.74037 20691 ft 325 kts 85°
2026-04-29 10:48 51.88415 -7.70383 21402 ft 327 kts 84°
2026-04-29 10:48 51.88640 -7.66764 22066 ft 329 kts 85°
2026-04-29 10:48 51.88859 -7.63071 22753 ft 330 kts 85°
2026-04-29 10:48 51.89070 -7.59357 23439 ft 332 kts 85°
2026-04-29 10:49 51.89274 -7.55628 24053 ft 334 kts 85°
2026-04-29 10:49 51.89473 -7.51873 24593 ft 335 kts 85°
2026-04-29 10:49 51.89668 -7.48103 25123 ft 337 kts 85°
2026-04-29 10:49 51.89862 -7.44305 25642 ft 339 kts 85°
2026-04-29 10:50 51.90055 -7.40487 26158 ft 341 kts 85°
2026-04-29 10:50 51.90247 -7.36652 26665 ft 343 kts 85°
2026-04-29 10:50 51.90438 -7.32800 27138 ft 345 kts 86°
2026-04-29 10:50 51.90629 -7.28916 27598 ft 347 kts 86°
2026-04-29 10:51 51.90819 -7.25006 28060 ft 349 kts 86°
2026-04-29 10:51 51.91010 -7.21072 28533 ft 351 kts 86°
2026-04-29 10:51 51.91200 -7.17123 28993 ft 353 kts 86°
2026-04-29 10:51 51.91390 -7.13144 29437 ft 355 kts 86°
2026-04-29 10:52 51.91580 -7.09151 29863 ft 357 kts 86°
2026-04-29 10:52 51.91769 -7.05137 30277 ft 359 kts 86°
2026-04-29 10:52 51.91957 -7.01098 30612 ft 361 kts 86°
2026-04-29 10:52 51.92147 -6.97021 30890 ft 364 kts 86°
2026-04-29 10:53 51.92335 -6.92922 31248 ft 365 kts 86°
2026-04-29 10:53 51.92522 -6.88833 31691 ft 364 kts 86°
2026-04-29 10:53 51.92708 -6.84753 32109 ft 363 kts 86°
2026-04-29 10:53 51.92892 -6.80670 32455 ft 364 kts 87°
2026-04-29 10:54 51.93074 -6.76582 32818 ft 364 kts 87°
2026-04-29 10:54 51.93253 -6.72546 33211 ft 364 kts 87°
2026-04-29 10:54 51.93433 -6.68455 33603 ft 363 kts 87°
2026-04-29 10:54 51.93611 -6.64375 33965 ft 364 kts 87°
2026-04-29 10:55 51.93788 -6.60287 34322 ft 364 kts 87°
2026-04-29 10:55 51.93963 -6.56196 34608 ft 364 kts 87°
2026-04-29 10:55 51.94138 -6.52084 34809 ft 367 kts 87°
2026-04-29 10:55 51.94313 -6.47947 35032 ft 369 kts 87°
2026-04-29 10:56 51.94487 -6.43792 35297 ft 370 kts 87°
2026-04-29 10:56 51.94660 -6.39620 35520 ft 372 kts 87°
2026-04-29 10:56 51.94834 -6.35433 35734 ft 374 kts 87°
2026-04-29 10:56 51.95006 -6.31218 35906 ft 377 kts 88°
2026-04-29 10:57 51.95159 -6.26959 36085 ft 379 kts 90°
2026-04-29 10:57 51.95025 -6.22692 36337 ft 379 kts 97°
2026-04-29 10:57 51.94528 -6.18482 36497 ft 383 kts 103°
2026-04-29 10:57 51.93873 -6.14283 36652 ft 386 kts 103°
2026-04-29 10:58 51.93207 -6.10060 36839 ft 388 kts 103°
2026-04-29 10:58 51.92541 -6.05827 37090 ft 388 kts 103°
2026-04-29 10:58 51.91877 -6.01583 37267 ft 390 kts 103°
2026-04-29 10:59 51.90536 -5.92983 37260 ft 396 kts 103°
2026-04-29 10:59 51.89193 -5.84373 37255 ft 393 kts 104°
2026-04-29 11:00 51.87852 -5.75804 37261 ft 392 kts 104°
2026-04-29 11:00 51.86508 -5.67265 37262 ft 391 kts 104°
2026-04-29 11:01 51.85161 -5.58747 37250 ft 391 kts 104°
2026-04-29 11:01 51.83808 -5.50234 37247 ft 391 kts 104°
2026-04-29 11:02 51.82459 -5.41790 37248 ft 391 kts 104°
2026-04-29 11:02 51.81095 -5.33285 37249 ft 391 kts 104°
2026-04-29 11:03 51.79765 -5.24760 37243 ft 392 kts 101°
2026-04-29 11:03 51.78726 -5.16110 37250 ft 395 kts 103°
2026-04-29 11:04 51.76761 -5.07701 37248 ft 406 kts 112°
2026-04-29 11:04 51.74390 -4.99298 37250 ft 416 kts 113°
2026-04-29 11:05 51.71940 -4.90758 37241 ft 423 kts 113°
2026-04-29 11:05 51.69458 -4.82136 37221 ft 425 kts 114°
2026-04-29 11:06 51.66989 -4.73458 37226 ft 427 kts 114°
2026-04-29 11:06 51.64523 -4.64753 37219 ft 427 kts 114°
2026-04-29 11:07 51.62061 -4.56057 37219 ft 427 kts 114°
2026-04-29 11:07 51.59616 -4.47433 37219 ft 426 kts 114°
2026-04-29 11:08 51.57158 -4.38777 37222 ft 425 kts 114°
2026-04-29 11:08 51.54700 -4.30142 37215 ft 424 kts 114°
2026-04-29 11:09 51.52249 -4.21560 37213 ft 422 kts 114°
2026-04-29 11:09 51.49802 -4.13013 37240 ft 421 kts 114°
2026-04-29 11:10 51.47367 -4.04435 37229 ft 424 kts 114°
2026-04-29 11:10 51.44939 -3.95800 37220 ft 426 kts 114°
2026-04-29 11:11 51.42505 -3.87130 37219 ft 427 kts 114°
2026-04-29 11:11 51.40118 -3.78408 37203 ft 427 kts 108°
2026-04-29 11:12 51.38906 -3.69094 37215 ft 428 kts 100°
2026-04-29 11:12 51.38053 -3.59675 37210 ft 428 kts 99°
2026-04-29 11:13 51.37235 -3.50251 37212 ft 427 kts 99°
2026-04-29 11:13 51.36426 -3.40831 37212 ft 427 kts 99°
2026-04-29 11:14 51.35618 -3.31417 37222 ft 427 kts 99°
2026-04-29 11:14 51.34819 -3.22014 37234 ft 427 kts 99°
2026-04-29 11:15 51.34023 -3.12608 37236 ft 427 kts 99°
2026-04-29 11:15 51.33224 -3.03200 37231 ft 427 kts 99°
2026-04-29 11:16 51.32429 -2.93858 37224 ft 427 kts 99°
2026-04-29 11:16 51.31624 -2.84449 37207 ft 427 kts 99°
2026-04-29 11:17 51.30821 -2.75043 37217 ft 427 kts 99°
2026-04-29 11:17 51.30019 -2.65629 37217 ft 429 kts 99°
2026-04-29 11:18 51.29215 -2.56150 37220 ft 432 kts 99°
2026-04-29 11:18 51.28408 -2.46624 37225 ft 434 kts 99°
2026-04-29 11:19 51.28088 -2.36983 37213 ft 437 kts 90°
2026-04-29 11:19 51.28343 -2.27258 37211 ft 438 kts 90°
2026-04-29 11:20 51.28634 -2.17527 37218 ft 439 kts 90°
2026-04-29 11:20 51.28931 -2.07784 37215 ft 439 kts 90°
2026-04-29 11:21 51.29228 -1.98047 37211 ft 439 kts 90°
2026-04-29 11:21 51.29523 -1.88309 37193 ft 439 kts 90°
2026-04-29 11:22 51.29817 -1.78574 37209 ft 439 kts 90°
2026-04-29 11:22 51.30109 -1.68829 37221 ft 439 kts 90°
2026-04-29 11:23 51.30398 -1.59083 37216 ft 439 kts 90°
2026-04-29 11:23 51.30683 -1.49331 37217 ft 440 kts 90°
2026-04-29 11:24 51.30965 -1.39574 37205 ft 439 kts 90°
2026-04-29 11:24 51.31258 -1.29837 37212 ft 438 kts 90°
2026-04-29 11:25 51.31554 -1.20121 37232 ft 437 kts 90°
2026-04-29 11:25 51.31850 -1.10412 37243 ft 437 kts 90°
2026-04-29 11:26 51.32292 -0.95862 37242 ft 437 kts 90°
2026-04-29 11:26 51.32578 -0.86184 37235 ft 436 kts 90°
2026-04-29 11:27 51.32856 -0.76487 37261 ft 436 kts 90°
2026-04-29 11:27 51.33129 -0.66798 37276 ft 436 kts 90°
2026-04-29 11:28 51.33389 -0.57115 37283 ft 436 kts 90°
2026-04-29 11:28 51.33632 -0.47460 37281 ft 429 kts 90°
2026-04-29 11:29 51.33746 -0.42834 37270 ft 413 kts 90°
2026-04-29 11:29 51.33860 -0.38335 37265 ft 397 kts 90°
2026-04-29 11:29 51.33973 -0.33939 37276 ft 386 kts 90°
2026-04-29 11:29 51.34082 -0.29711 37284 ft 386 kts 90°
2026-04-29 11:30 51.34297 -0.21100 37294 ft 389 kts 90°
2026-04-29 11:30 51.34342 -0.12421 37283 ft 390 kts 97°
2026-04-29 11:31 51.33642 -0.03800 37277 ft 392 kts 99°
2026-04-29 11:31 51.33003 0.04888 37284 ft 395 kts 98°
2026-04-29 11:32 51.32581 0.13670 37360 ft 397 kts 96°
2026-04-29 11:32 51.32201 0.22496 37395 ft 398 kts 96°
2026-04-29 11:33 51.31794 0.31335 37405 ft 399 kts 97°
2026-04-29 11:33 51.31368 0.40168 37421 ft 399 kts 97°
2026-04-29 11:34 51.30935 0.48995 37410 ft 397 kts 96°
2026-04-29 11:34 51.30497 0.57779 37407 ft 396 kts 96°
2026-04-29 11:35 51.30123 0.66537 37384 ft 395 kts 95°
2026-04-29 11:35 51.29820 0.75280 37360 ft 393 kts 97°
2026-04-29 11:36 51.29235 0.82453 37338 ft 391 kts 101°
2026-04-29 11:36 51.28320 0.91010 37304 ft 391 kts 101°
2026-04-29 11:37 51.27409 0.99564 37276 ft 390 kts 100°
2026-04-29 11:37 51.26520 1.08169 37279 ft 398 kts 100°
2026-04-29 11:38 51.25619 1.16977 36964 ft 407 kts 100°
2026-04-29 11:38 51.25162 1.21447 36571 ft 409 kts 100°
2026-04-29 11:38 51.24703 1.25915 36184 ft 406 kts 100°
2026-04-29 11:39 51.24249 1.30330 35801 ft 400 kts 101°
2026-04-29 11:39 51.23799 1.34689 35421 ft 397 kts 101°
2026-04-29 11:39 51.23345 1.39056 35064 ft 400 kts 101°
2026-04-29 11:39 51.22881 1.43498 34723 ft 413 kts 101°
2026-04-29 11:40 51.22397 1.48100 34375 ft 428 kts 101°
2026-04-29 11:40 51.21899 1.52832 33970 ft 433 kts 101°
2026-04-29 11:40 51.21402 1.57546 33549 ft 429 kts 101°
2026-04-29 11:40 51.20909 1.62214 33136 ft 424 kts 101°
2026-04-29 11:41 51.20420 1.66819 32733 ft 419 kts 101°
2026-04-29 11:41 51.19935 1.71373 32330 ft 415 kts 101°
2026-04-29 11:41 51.19452 1.75883 31942 ft 411 kts 101°
2026-04-29 11:41 51.18970 1.80360 31557 ft 408 kts 101°
2026-04-29 11:42 51.18489 1.84810 31186 ft 406 kts 101°
2026-04-29 11:42 51.18010 1.89232 30796 ft 404 kts 101°
2026-04-29 11:42 51.17530 1.93635 30436 ft 402 kts 101°
2026-04-29 11:42 51.17052 1.98010 30016 ft 400 kts 101°
2026-04-29 11:43 51.16575 2.02367 29588 ft 398 kts 101°
2026-04-29 11:43 51.16098 2.06697 29172 ft 396 kts 101°
2026-04-29 11:43 51.15622 2.11011 28755 ft 395 kts 101°
2026-04-29 11:43 51.15144 2.15326 28359 ft 400 kts 101°
2026-04-29 11:44 51.14647 2.19791 28011 ft 419 kts 101°
2026-04-29 11:44 51.14126 2.24447 27686 ft 435 kts 101°
2026-04-29 11:44 51.13590 2.29234 27344 ft 441 kts 101°
2026-04-29 11:44 51.13051 2.34036 27001 ft 440 kts 101°
2026-04-29 11:45 51.12512 2.38820 26672 ft 438 kts 100°
2026-04-29 11:45 51.11972 2.43577 26343 ft 436 kts 101°
2026-04-29 11:45 51.11168 2.48220 25999 ft 435 kts 110°
2026-04-29 11:45 51.09906 2.52591 25698 ft 435 kts 118°
2026-04-29 11:46 51.08304 2.56601 25382 ft 434 kts 122°
2026-04-29 11:46 51.06642 2.60598 25068 ft 433 kts 122°
2026-04-29 11:46 51.04984 2.64593 24748 ft 432 kts 122°
2026-04-29 11:46 51.03315 2.68631 24446 ft 431 kts 122°
2026-04-29 11:47 51.01677 2.72608 24138 ft 430 kts 122°
2026-04-29 11:47 51.00049 2.76448 23823 ft 419 kts 126°
2026-04-29 11:47 50.98047 2.79720 23462 ft 409 kts 137°
2026-04-29 11:47 50.95842 2.82494 23130 ft 400 kts 140°
2026-04-29 11:48 50.93631 2.85091 22779 ft 394 kts 141°
2026-04-29 11:48 50.91401 2.87629 22439 ft 395 kts 141°
2026-04-29 11:48 50.89158 2.90162 22095 ft 396 kts 141°
2026-04-29 11:48 50.86914 2.92701 21759 ft 398 kts 142°
2026-04-29 11:49 50.84665 2.95257 21424 ft 398 kts 141°
2026-04-29 11:49 50.82413 2.97813 21094 ft 398 kts 141°
2026-04-29 11:49 50.80164 3.00374 20776 ft 398 kts 141°
2026-04-29 11:49 50.77913 3.02917 20453 ft 397 kts 141°
2026-04-29 11:50 50.75668 3.05443 20129 ft 395 kts 141°
2026-04-29 11:50 50.73430 3.07931 19813 ft 392 kts 141°
2026-04-29 11:50 50.71189 3.10428 19518 ft 403 kts 142°
2026-04-29 11:50 50.68846 3.13058 19251 ft 422 kts 141°
2026-04-29 11:51 50.66445 3.15745 18957 ft 424 kts 142°
2026-04-29 11:51 50.64038 3.18452 18684 ft 426 kts 142°
2026-04-29 11:51 50.61637 3.21174 18331 ft 425 kts 142°
2026-04-29 11:51 50.59238 3.23903 17970 ft 425 kts 141°
2026-04-29 11:52 50.56843 3.26632 17600 ft 424 kts 141°
2026-04-29 11:52 50.54458 3.29341 17231 ft 422 kts 141°
2026-04-29 11:52 50.52082 3.32026 16870 ft 419 kts 141°
2026-04-29 11:52 50.49722 3.34682 16514 ft 416 kts 141°
2026-04-29 11:53 50.47402 3.37344 16157 ft 411 kts 137°
2026-04-29 11:53 50.45450 3.40535 15779 ft 402 kts 123°
2026-04-29 11:53 50.44108 3.44324 15409 ft 394 kts 109°
2026-04-29 11:53 50.43291 3.48388 15060 ft 389 kts 103°
2026-04-29 11:54 50.42614 3.52485 14696 ft 387 kts 102°
2026-04-29 11:54 50.41979 3.56563 14342 ft 385 kts 102°
2026-04-29 11:54 50.41354 3.60632 13995 ft 383 kts 102°
2026-04-29 11:54 50.40735 3.64683 13572 ft 381 kts 102°
2026-04-29 11:55 50.40126 3.68705 13176 ft 379 kts 102°
2026-04-29 11:55 50.39525 3.72697 12655 ft 373 kts 102°
2026-04-29 11:55 50.39047 3.76637 12135 ft 363 kts 92°
2026-04-29 11:55 50.39047 3.80543 11604 ft 356 kts 88°
2026-04-29 11:56 50.39091 3.84354 11041 ft 343 kts 89°
2026-04-29 11:56 50.39096 3.88006 10444 ft 329 kts 92°
2026-04-29 11:56 50.38647 3.91457 9812 ft 321 kts 110°
2026-04-29 11:56 50.37638 3.94458 9306 ft 311 kts 120°
2026-04-29 11:57 50.36485 3.97271 8757 ft 303 kts 121°
2026-04-29 11:57 50.35332 3.99975 8216 ft 295 kts 121°
2026-04-29 11:57 50.34195 4.02594 7699 ft 287 kts 121°
2026-04-29 11:57 50.33222 4.05242 7277 ft 275 kts 109°
2026-04-29 11:58 50.32896 4.08112 6898 ft 264 kts 88°
2026-04-29 11:58 50.33284 4.10869 6529 ft 258 kts 67°
2026-04-29 11:58 50.34308 4.13134 6154 ft 256 kts 47°
2026-04-29 11:58 50.35645 4.14874 5825 ft 244 kts 42°
2026-04-29 11:59 50.36968 4.16473 5333 ft 238 kts 42°
2026-04-29 11:59 50.38209 4.18124 4763 ft 229 kts 54°
2026-04-29 11:59 50.39038 4.20177 4238 ft 220 kts 65°
2026-04-29 11:59 50.39768 4.22248 3840 ft 211 kts 65°
2026-04-29 12:00 50.40399 4.24237 3539 ft 196 kts 73°
2026-04-29 12:00 50.40822 4.26176 3301 ft 182 kts 76°
2026-04-29 12:00 50.41195 4.28007 3067 ft 171 kts 76°
2026-04-29 12:00 50.41555 4.29717 2886 ft 160 kts 74°
2026-04-29 12:01 50.41953 4.31274 2636 ft 149 kts 71°
2026-04-29 12:01 50.42346 4.32689 2465 ft 136 kts 70°
2026-04-29 12:01 50.42729 4.34044 2081 ft 135 kts 68°
2026-04-29 12:01 50.43092 4.35301 1890 ft 122 kts 68°
2026-04-29 12:02 50.43445 4.36525 1727 ft 123 kts 67°
2026-04-29 12:02 50.43788 4.37713 1558 ft 120 kts 67°
2026-04-29 12:02 50.44143 4.38937 1379 ft 124 kts 67°
2026-04-29 12:02 50.44497 4.40163 1225 ft 127 kts 66°
2026-04-29 12:03 50.44857 4.41424 1064 ft 125 kts 65°
2026-04-29 12:03 50.45231 4.42696 840 ft 131 kts 65°
2026-04-29 12:03 50.45598 4.43954 668 ft 124 kts 65°
2026-04-29 12:03 50.45929 4.45091 592 ft 103 kts 65°
2026-04-29 12:04 50.46176 4.45942 591 ft 58 kts 65°
2026-04-29 12:04 50.46304 4.46381 589 ft 37 kts 65°
2026-04-29 12:04 50.46398 4.46701 591 ft 26 kts 67°
2026-04-29 12:04 50.46473 4.46890 593 ft 17 kts 15°
2026-04-29 12:05 50.46563 4.46857 593 ft 9 kts 335°
2026-04-29 12:05 50.46627 4.46812 591 ft 11 kts 336°
2026-04-29 12:05 50.46689 4.46771 588 ft 11 kts 338°
2026-04-29 12:05 50.46736 4.46843 586 ft 11 kts 67°
2026-04-29 12:06 50.46767 4.46951 584 ft 10 kts 66°
2026-04-29 12:06 50.46784 4.47005 584 ft 5 kts 48°
2026-04-29 12:06 50.46804 4.47011 584 ft 3 kts 349°
2026-04-29 12:06 50.46826 4.46996 584 ft 3 kts 334°
2026-04-29 12:07 50.46838 4.46988 584 ft 1 kts 335°
2026-04-29 12:07 50.46841 4.46985 584 ft 0 kts 335°